Station Historical Data
Daily Summary for November 16, 2017 Units:  Metric    English   Both
« Previous Day
Next Day »
Daily Weekly Monthly Yearly Custom
  High: Low: Average:
Temperature: 18 °C 7.6 °C 12.2 °C
Dew Point: 10.1 °C 2.8 °C 6.2 °C
Humidity: 89% 40% 69%
Wind Speed: 9.3km/h 0km/h 2.4km/h
Wind Gust: 9.3km/h - -
Wind- - SW
Pressure: 1021.9 hPa 1019.5 hPa -
Precipitation: 0 mm    
Historical Graphs
 
 
Tabular Data for November 16, 2017
Time Temperature Dew Point Pressure Wind Wind Speed Wind Gust Humidity Rainfall Rate (Hourly) solar Conditions
00:02 9.9 °C 6.7 °C 1020.5 hPa Calm     80% 0 mm WeatherDisplay:10.37 W/m2 SCT
00:07 9.9 °C 6.6 °C 1020.9 hPa Calm     80% 0 mm WeatherDisplay:10.37 W/m2 SCT
00:12 9.8 °C 6.5 °C 1020.9 hPa Calm     80% 0 mm WeatherDisplay:10.37 W/m2 SCT
00:17 9.7 °C 6.4 °C 1020.9 hPa Calm     80% 0 mm WeatherDisplay:10.37 W/m2 SCT
00:22 9.7 °C 6.4 °C 1020.9 hPa Calm     80% 0 mm WeatherDisplay:10.37 W/m2 SCT
00:27 9.7 °C 6.2 °C 1020.9 hPa Calm     79% 0 mm WeatherDisplay:10.37 W/m2 SCT
00:32 9.7 °C 6.2 °C 1020.9 hPa Calm     79% 0 mm WeatherDisplay:10.37 W/m2 SCT
00:38 9.6 °C 6.3 °C 1020.9 hPa Calm     80% 0 mm WeatherDisplay:10.37 W/m2 SCT
00:43 9.5 °C 6.2 °C 1020.9 hPa Calm     80% 0 mm WeatherDisplay:10.37 W/m2 SCT
00:48 9.4 °C 6.1 °C 1020.5 hPa Calm     80% 0 mm WeatherDisplay:10.37 W/m2 SCT
00:53 9.3 °C 6.1 °C 1020.5 hPa Calm     80% 0 mm WeatherDisplay:10.37 W/m2 SCT
00:58 9.3 °C 6 °C 1020.9 hPa Calm     80% 0 mm WeatherDisplay:10.37 W/m2 SCT
01:03 9.2 °C 6.1 °C 1020.5 hPa Calm     81% 0 mm WeatherDisplay:10.37 W/m2 SCT
01:08 9.1 °C 5.9 °C 1020.5 hPa Calm     81% 0 mm WeatherDisplay:10.37 W/m2 SCT
01:13 9 °C 5.9 °C 1020.5 hPa Calm     81% 0 mm WeatherDisplay:10.37 W/m2 SCT
01:18 8.9 °C 5.8 °C 1020.5 hPa Calm     81% 0 mm WeatherDisplay:10.37 W/m2 SCT
01:23 8.9 °C 6.1 °C 1020.5 hPa Calm     82% 0 mm WeatherDisplay:10.37 W/m2 SCT
01:28 8.9 °C 6 °C 1020.5 hPa Calm     82% 0 mm WeatherDisplay:10.37 W/m2 SCT
01:33 8.9 °C 6.2 °C 1020.5 hPa Calm     83% 0 mm WeatherDisplay:10.37 W/m2 SCT
01:38 8.9 °C 6.4 °C 1020.5 hPa Calm     84% 0 mm WeatherDisplay:10.37 W/m2 SCT
01:43 9 °C 6.4 °C 1020.5 hPa Calm     84% 0 mm WeatherDisplay:10.37 W/m2 SCT
01:49 9 °C 6.4 °C 1020.5 hPa Calm     84% 0 mm WeatherDisplay:10.37 W/m2 SCT
01:54 9.1 °C 6.5 °C 1020.5 hPa Calm     84% 0 mm WeatherDisplay:10.37 W/m2 SCT
01:59 9.1 °C 6.5 °C 1020.5 hPa Calm     84% 0 mm WeatherDisplay:10.37 W/m2 SCT
02:04 9.2 °C 6.6 °C 1020.5 hPa Calm     84% 0 mm WeatherDisplay:10.37 W/m2 OVC
02:09 9.2 °C 6.8 °C 1020.2 hPa Calm     85% 0 mm WeatherDisplay:10.37 W/m2 OVC
02:14 9.2 °C 6.7 °C 1020.2 hPa Calm     84% 0 mm WeatherDisplay:10.37 W/m2 OVC
02:19 9.3 °C 6.7 °C 1020.2 hPa Calm     84% 0 mm WeatherDisplay:10.37 W/m2 OVC
02:24 9.3 °C 6.7 °C 1020.2 hPa Calm     84% 0 mm WeatherDisplay:10.37 W/m2 OVC
02:29 9.3 °C 6.8 °C 1020.2 hPa Calm     84% 0 mm WeatherDisplay:10.37 W/m2 OVC
02:39 9.4 °C 6.8 °C 1020.2 hPa Calm     84% 0 mm WeatherDisplay:10.37 W/m2 OVC
02:49 9.4 °C 6.9 °C 1020.2 hPa Calm     84% 0 mm WeatherDisplay:10.37 W/m2 OVC
02:54 9.5 °C 6.9 °C 1020.2 hPa Calm     84% 0 mm WeatherDisplay:10.37 W/m2 OVC
03:00 9.5 °C 7.1 °C 1020.2 hPa Calm     85% 0 mm WeatherDisplay:10.37 W/m2 OVC
03:05 9.6 °C 7.2 °C 1020.2 hPa Calm     85% 0 mm WeatherDisplay:10.37 W/m2 BKN
03:10 9.6 °C 7.2 °C 1020.2 hPa Calm     85% 0 mm WeatherDisplay:10.37 W/m2 BKN
03:15 9.6 °C 7.2 °C 1020.2 hPa Calm     85% 0 mm WeatherDisplay:10.37 W/m2 BKN
03:20 9.7 °C 7.3 °C 1020.2 hPa Calm     85% 0 mm WeatherDisplay:10.37 W/m2 BKN
03:30 9.7 °C 7.3 °C 1020.2 hPa Calm     85% 0 mm WeatherDisplay:10.37 W/m2 BKN
03:35 9.8 °C 7.4 °C 1020.2 hPa Calm     85% 0 mm WeatherDisplay:10.37 W/m2 BKN
03:40 9.8 °C 7.4 °C 1020.2 hPa Calm     85% 0 mm WeatherDisplay:10.37 W/m2 BKN
03:45 9.8 °C 7.6 °C 1020.2 hPa Calm     86% 0 mm WeatherDisplay:10.37 W/m2 BKN
03:50 9.9 °C 7.7 °C 1020.2 hPa Calm     86% 0 mm WeatherDisplay:10.37 W/m2 BKN
03:55 9.9 °C 7.7 °C 1020.2 hPa Calm     86% 0 mm WeatherDisplay:10.37 W/m2 BKN
04:00 10 °C 7.8 °C 1020.2 hPa Calm     86% 0 mm WeatherDisplay:10.37 W/m2 BKN
04:05 10.1 °C 7.8 °C 1020.5 hPa Calm     86% 0 mm WeatherDisplay:10.37 W/m2 OVC
04:11 10.1 °C 7.7 °C 1020.5 hPa Calm     85% 0 mm WeatherDisplay:10.37 W/m2 OVC
04:16 10.2 °C 7.8 °C 1020.5 hPa Calm     85% 0 mm WeatherDisplay:10.37 W/m2 OVC
04:21 10.3 °C 7.7 °C 1020.2 hPa NNE 1.9 km/h   84% 0 mm WeatherDisplay:10.37 W/m2 OVC
04:26 10.3 °C 7.7 °C 1020.2 hPa NNE 1.9 km/h   84% 0 mm WeatherDisplay:10.37 W/m2 OVC
04:31 10.4 °C 7.6 °C 1020.2 hPa NNE 1.9 km/h   83% 0 mm WeatherDisplay:10.37 W/m2 OVC
04:36 10.4 °C 7.8 °C 1020.2 hPa Calm     84% 0 mm WeatherDisplay:10.37 W/m2 OVC
04:41 10.4 °C 7.7 °C 1020.2 hPa Calm     83% 0 mm WeatherDisplay:10.37 W/m2 OVC
04:46 10.4 °C 7.7 °C 1020.5 hPa Calm     83% 0 mm WeatherDisplay:10.37 W/m2 OVC
04:51 10.4 °C 7.7 °C 1020.5 hPa Calm     83% 0 mm WeatherDisplay:10.37 W/m2 OVC
04:56 10.4 °C 7.6 °C 1020.5 hPa Calm     83% 0 mm WeatherDisplay:10.37 W/m2 OVC
05:01 10.4 °C 7.6 °C 1020.5 hPa Calm     83% 0 mm WeatherDisplay:10.37 W/m2 OVC
05:06 10.3 °C 7.7 °C 1020.5 hPa Calm     84% 0 mm WeatherDisplay:10.37 W/m2 OVC
05:11 10.3 °C 7.6 °C 1020.5 hPa Calm     83% 0 mm WeatherDisplay:10.37 W/m2 OVC
05:16 10.4 °C 7.8 °C 1020.5 hPa Calm     84% 0 mm WeatherDisplay:10.37 W/m2 OVC
05:22 10.4 °C 7.8 °C 1020.5 hPa Calm     84% 0 mm WeatherDisplay:10.37 W/m2 OVC
05:27 10.4 °C 7.6 °C 1020.5 hPa Calm     83% 0 mm WeatherDisplay:10.37 W/m2 OVC
05:32 10.4 °C 7.7 °C 1020.5 hPa Calm     83% 0 mm WeatherDisplay:10.37 W/m2 OVC
05:37 10.4 °C 7.7 °C 1020.5 hPa Calm     83% 0 mm WeatherDisplay:10.37 W/m2 OVC
05:42 10.4 °C 7.7 °C 1020.2 hPa Calm     83% 0 mm WeatherDisplay:10.37 W/m2 OVC
05:47 10.4 °C 7.7 °C 1020.2 hPa Calm     83% 0 mm WeatherDisplay:10.37 W/m2 OVC
05:52 10.4 °C 7.8 °C 1020.2 hPa Calm     84% 0 mm WeatherDisplay:10.37 W/m2 OVC
05:57 10.4 °C 7.8 °C 1020.5 hPa Calm     84% 0 mm WeatherDisplay:10.37 W/m2 OVC
06:02 10.4 °C 7.8 °C 1020.5 hPa Calm     84% 0 mm WeatherDisplay:10.37 W/m2 OVC
06:07 10.4 °C 8.1 °C 1020.5 hPa Calm     85% 0 mm WeatherDisplay:10.37 W/m2 OVC
06:12 10.4 °C 7.8 °C 1020.5 hPa Calm     84% 0 mm WeatherDisplay:10.37 W/m2 OVC
06:17 10.4 °C 7.8 °C 1020.5 hPa Calm     84% 0 mm WeatherDisplay:10.37 W/m2 OVC
06:23 10.5 °C 7.9 °C 1020.5 hPa Calm     84% 0 mm WeatherDisplay:10.37 W/m2 OVC
06:28 10.5 °C 7.9 °C 1020.5 hPa Calm     84% 0 mm WeatherDisplay:10.37 W/m2 OVC
06:33 10.5 °C 7.9 °C 1020.5 hPa Calm     84% 0 mm WeatherDisplay:10.37 W/m2 OVC
06:38 10.5 °C 7.9 °C 1020.9 hPa Calm     84% 0 mm WeatherDisplay:10.37 W/m2 OVC
06:43 10.6 °C 8.1 °C 1020.9 hPa Calm     85% 0 mm WeatherDisplay:10.37 W/m2 OVC
06:48 10.6 °C 7.9 °C 1020.9 hPa Calm     84% 0 mm WeatherDisplay:10.37 W/m2 OVC
06:53 10.6 °C 8.1 °C 1020.9 hPa Calm     85% 0 mm WeatherDisplay:10.37 W/m2 OVC
06:58 10.6 °C 8.2 °C 1020.9 hPa North 1.9 km/h   85% 0 mm WeatherDisplay:10.37 W/m2 OVC
07:03 10.6 °C 8 °C 1020.9 hPa North 1.9 km/h   84% 0 mm WeatherDisplay:10.37 W/m2 OVC
07:08 10.6 °C 7.9 °C 1020.5 hPa North 1.9 km/h   84% 0 mm WeatherDisplay:10.37 W/m2 OVC
07:13 10.4 °C 7.8 °C 1020.9 hPa Calm     84% 0 mm WeatherDisplay:10.37 W/m2 OVC
07:18 10.3 °C 7.7 °C 1020.9 hPa Calm     84% 0 mm WeatherDisplay:10.37 W/m2 OVC
07:23 10.1 °C 7.7 °C 1020.9 hPa Calm     85% 0 mm WeatherDisplay:10.37 W/m2 OVC
07:28 10 °C 7.6 °C 1020.9 hPa Calm     85% 0 mm WeatherDisplay:10.37 W/m2 OVC
07:33 9.8 °C 7.6 °C 1021.2 hPa Calm     86% 0 mm WeatherDisplay:10.37 W/m2 SCT
07:39 9.8 °C 7.6 °C 1021.2 hPa Calm     86% 0 mm WeatherDisplay:10.37 W/m2 SCT
07:44 9.7 °C 7.6 °C 1021.2 hPa Calm     87% 0 mm WeatherDisplay:10.37 W/m2 SCT
07:49 9.6 °C 7.6 °C 1021.2 hPa Calm     87% 0 mm WeatherDisplay:10.37 W/m2 SCT
07:54 9.6 °C 7.6 °C 1021.2 hPa Calm     87% 0 mm WeatherDisplay:10.37 W/m2 SCT
07:59 9.6 °C 7.7 °C 1021.6 hPa Calm     88% 0 mm WeatherDisplay:10.37 W/m2 SCT
08:04 9.6 °C 7.7 °C 1021.6 hPa Calm     88% 0 mm WeatherDisplay:10.37 W/m2 SCT
08:09 9.7 °C 8 °C 1021.6 hPa Calm     89% 0 mm WeatherDisplay:10.37 W/m2 SCT
08:14 9.8 °C 8.1 °C 1021.6 hPa Calm     89% 0 mm WeatherDisplay:10.37 W/m2 SCT
08:19 9.9 °C 8.2 °C 1021.6 hPa Calm     89% 0 mm WeatherDisplay:10.37 W/m2 SCT
08:24 10.2 °C 8.3 °C 1021.6 hPa NNW 1.9 km/h   88% 0 mm WeatherDisplay:10.37 W/m2 SCT
08:29 10.5 °C 8.4 °C 1021.6 hPa WNW 1.9 km/h   87% 0 mm WeatherDisplay:10.37 W/m2 SCT
08:34 10.8 °C 8.7 °C 1021.6 hPa West 1.9 km/h   87% 0 mm WeatherDisplay:10.37 W/m2 SCT
08:39 11.1 °C 8.8 °C 1021.6 hPa West 1.9 km/h   86% 0 mm WeatherDisplay:10.37 W/m2 SCT
08:49 11.7 °C 8.9 °C 1021.6 hPa WSW 1.9 km/h 1.9 km/h 83% 0 mm WeatherDisplay:10.37 W/m2 SCT
08:55 12 °C 9.2 °C 1021.6 hPa WSW 1.9 km/h   83% 0 mm WeatherDisplay:10.37 W/m2 SCT
09:00 12.3 °C 9.1 °C 1021.6 hPa SW 3.7 km/h   81% 0 mm WeatherDisplay:10.37 W/m2 SCT
09:05 12.4 °C 9.3 °C 1021.6 hPa Calm   1.6 km/h 81% 0 mm WeatherDisplay:10.37 W/m2 SCT
09:10 12.6 °C 9.2 °C 1021.6 hPa SW 5.6 km/h 5.6 km/h 80% 0 mm WeatherDisplay:10.37 W/m2 SCT
09:15 12.8 °C 9.4 °C 1021.6 hPa SW 5.6 km/h 5.6 km/h 80% 0 mm WeatherDisplay:10.37 W/m2 SCT
09:20 12.9 °C 9.5 °C 1021.6 hPa SW 5.6 km/h   80% 0 mm WeatherDisplay:10.37 W/m2 SCT
09:25 13.3 °C 10.1 °C 1021.6 hPa NE 5.6 km/h   81% 0 mm WeatherDisplay:10.37 W/m2 SCT
09:30 13.5 °C 9.7 °C 1021.6 hPa NW 3.7 km/h 3.7 km/h 78% 0 mm WeatherDisplay:10.37 W/m2 SCT
09:35 13.6 °C 9.7 °C 1021.6 hPa WSW 5.6 km/h 5.6 km/h 77% 0 mm WeatherDisplay:10.37 W/m2 SCT
09:40 13.7 °C 9.8 °C 1021.9 hPa SSW 5.6 km/h 5.6 km/h 77% 0 mm WeatherDisplay:10.37 W/m2 SCT
09:45 13.9 °C 9.8 °C 1021.9 hPa SE 5.6 km/h 5.6 km/h 76% 0 mm WeatherDisplay:10.37 W/m2 SCT
09:51 14.1 °C 9.7 °C 1021.9 hPa East 5.6 km/h 5.6 km/h 75% 0 mm WeatherDisplay:10.37 W/m2 SCT
09:56 14.2 °C 9.8 °C 1021.9 hPa West 5.6 km/h 5.6 km/h 75% 0 mm WeatherDisplay:10.37 W/m2 SCT
10:01 14.3 °C 9.9 °C 1021.9 hPa SW 9.3 km/h 9.3 km/h 75% 0 mm WeatherDisplay:10.37 W/m2 SCT
10:06 14.4 °C 9.7 °C 1021.9 hPa WNW 9.3 km/h 9.3 km/h 73% 0 mm WeatherDisplay:10.37 W/m2 BKN
10:11 14.5 °C 9.7 °C 1021.9 hPa WSW 7.4 km/h 7.4 km/h 73% 0 mm WeatherDisplay:10.37 W/m2 BKN
10:16 14.8 °C 10.1 °C 1021.9 hPa WSW 7.4 km/h 7.4 km/h 73% 0 mm WeatherDisplay:10.37 W/m2 BKN
10:21 15.1 °C 9.9 °C 1021.9 hPa West 7.4 km/h 7.4 km/h 71% 0 mm WeatherDisplay:10.37 W/m2 BKN
10:26 15.1 °C 9.6 °C 1021.9 hPa SSW 7.4 km/h 7.4 km/h 70% 0 mm WeatherDisplay:10.37 W/m2 BKN
10:31 15.1 °C 9.9 °C 1021.9 hPa WSW 7.4 km/h 7.4 km/h 71% 0 mm WeatherDisplay:10.37 W/m2 BKN
10:36 15.1 °C 9.6 °C 1021.9 hPa WSW 9.3 km/h 9.3 km/h 70% 0 mm WeatherDisplay:10.37 W/m2 BKN
10:41 14.8 °C 9.4 °C 1021.9 hPa WSW 9.3 km/h 9.3 km/h 70% 0 mm WeatherDisplay:10.37 W/m2 BKN
10:51 14.9 °C 9.4 °C 1021.9 hPa WSW 5.6 km/h 5.6 km/h 70% 0 mm WeatherDisplay:10.37 W/m2 BKN
10:57 15.1 °C 9.4 °C 1021.9 hPa SW 5.6 km/h 5.6 km/h 69% 0 mm WeatherDisplay:10.37 W/m2 BKN
11:02 15.3 °C 9.8 °C 1021.9 hPa WSW 3.7 km/h 3.7 km/h 70% 0 mm WeatherDisplay:10.37 W/m2 BKN
11:07 15.5 °C 9.6 °C 1021.9 hPa WNW 3.7 km/h   68% 0 mm WeatherDisplay:10.37 W/m2 BKN
11:12 15.8 °C 9.7 °C 1021.9 hPa WNW 5.6 km/h 5.6 km/h 67% 0 mm WeatherDisplay:10.37 W/m2 BKN
11:17 15.7 °C 8.9 °C 1021.6 hPa South 7.4 km/h 7.4 km/h 64% 0 mm WeatherDisplay:10.37 W/m2 BKN
11:22 15.6 °C 9.1 °C 1021.6 hPa WSW 7.4 km/h 7.4 km/h 65% 0 mm WeatherDisplay:10.37 W/m2 BKN
11:27 15.5 °C 9.2 °C 1021.6 hPa West 7.4 km/h 7.4 km/h 66% 0 mm WeatherDisplay:10.37 W/m2 BKN
11:32 15.6 °C 9.5 °C 1021.6 hPa WSW 3.7 km/h 3.7 km/h 67% 0 mm WeatherDisplay:10.37 W/m2 BKN
11:37 15.7 °C 9.2 °C 1021.6 hPa WNW 3.7 km/h 3.7 km/h 65% 0 mm WeatherDisplay:10.37 W/m2 BKN
11:42 15.7 °C 9.4 °C 1021.6 hPa WNW 3.7 km/h 3.7 km/h 66% 0 mm WeatherDisplay:10.37 W/m2 BKN
11:47 15.8 °C 9.4 °C 1021.6 hPa SSE 7.4 km/h 7.4 km/h 66% 0 mm WeatherDisplay:10.37 W/m2 BKN
11:52 15.8 °C 9.5 °C 1021.2 hPa ENE 7.4 km/h 7.4 km/h 66% 0 mm WeatherDisplay:10.37 W/m2 BKN
11:58 16 °C 9.2 °C 1021.2 hPa WNW 7.4 km/h 7.4 km/h 64% 0 mm WeatherDisplay:10.37 W/m2 BKN
12:03 16.1 °C 9 °C 1020.9 hPa South 5.6 km/h 5.6 km/h 63% 0 mm WeatherDisplay:10.37 W/m2 BKN
12:08 16.1 °C 9.1 °C 1020.9 hPa ESE 7.4 km/h   63% 0 mm WeatherDisplay:10.37 W/m2 BKN
12:13 16.3 °C 9.2 °C 1020.9 hPa SSW 7.4 km/h 7.4 km/h 63% 0 mm WeatherDisplay:10.37 W/m2 BKN
12:18 16.3 °C 9.3 °C 1020.9 hPa West 3.7 km/h 3.7 km/h 63% 0 mm WeatherDisplay:10.37 W/m2 BKN
12:28 16.4 °C 8.8 °C 1020.5 hPa SSE 5.6 km/h 5.6 km/h 61% 0 mm WeatherDisplay:10.37 W/m2 BKN
12:33 16.5 °C 8.7 °C 1020.5 hPa SW 7.4 km/h 7.4 km/h 60% 0 mm WeatherDisplay:10.37 W/m2 BKN
12:38 16.6 °C 8.6 °C 1020.2 hPa WSW 7.4 km/h 7.4 km/h 59% 0 mm WeatherDisplay:10.37 W/m2 BKN
12:43 16.7 °C 8.3 °C 1020.2 hPa WNW 7.4 km/h 7.4 km/h 58% 0 mm WeatherDisplay:10.37 W/m2 BKN
12:48 16.8 °C 8.4 °C 1020.2 hPa NNW 9.3 km/h 9.3 km/h 58% 0 mm WeatherDisplay:10.37 W/m2 BKN
12:53 16.8 °C 8.5 °C 1020.2 hPa NW 9.3 km/h 9.3 km/h 58% 0 mm WeatherDisplay:10.37 W/m2 BKN
12:58 16.9 °C 8.1 °C 1020.2 hPa SW 7.4 km/h 7.4 km/h 56% 0 mm WeatherDisplay:10.37 W/m2 BKN
13:01 17 °C 8.4 °C 1019.9 hPa WSW 7.4 km/h 7.4 km/h 57% 0 mm WeatherDisplay:10.37 W/m2 BKN
13:06 17.2 °C 8.1 °C 1019.9 hPa SE 7.4 km/h 7.4 km/h 55% 0 mm WeatherDisplay:10.37 W/m2 BKN
13:11 17.3 °C 8.4 °C 1019.9 hPa West 7.4 km/h 7.4 km/h 56% 0 mm WeatherDisplay:10.37 W/m2 BKN
13:16 17.4 °C 7.5 °C 1019.9 hPa West 7.4 km/h 7.4 km/h 52% 0 mm WeatherDisplay:10.37 W/m2 BKN
13:21 17.7 °C 6.8 °C 1019.9 hPa SSW 7.4 km/h 7.4 km/h 49% 0 mm WeatherDisplay:10.37 W/m2 BKN
13:25 17.7 °C 6.6 °C 1019.9 hPa SW 7.4 km/h 7.4 km/h 48% 0 mm WeatherDisplay:10.37 W/m2 BKN
13:30 17.8 °C 7.6 °C 1019.9 hPa WNW 7.4 km/h 7.4 km/h 51% 0 mm WeatherDisplay:10.37 W/m2 BKN
13:35 17.6 °C 7.3 °C 1019.9 hPa WSW 7.4 km/h 7.4 km/h 51% 0 mm WeatherDisplay:10.37 W/m2 BKN
13:40 17.7 °C 7.4 °C 1019.9 hPa SE 7.4 km/h   51% 0 mm WeatherDisplay:10.37 W/m2 BKN
13:45 17.9 °C 7.1 °C 1019.9 hPa WNW 7.4 km/h 7.4 km/h 49% 0 mm WeatherDisplay:10.37 W/m2 BKN
13:50 17.8 °C 6.9 °C 1019.9 hPa SSW 5.6 km/h 5.6 km/h 49% 0 mm WeatherDisplay:10.37 W/m2 BKN
13:55 17.8 °C 6.7 °C 1019.9 hPa SE 7.4 km/h 7.4 km/h 48% 0 mm WeatherDisplay:10.37 W/m2 BKN
14:00 18 °C 6.5 °C 1019.9 hPa NE 7.4 km/h 7.4 km/h 47% 0 mm WeatherDisplay:10.37 W/m2 BKN
14:05 17.8 °C 6.1 °C 1019.9 hPa SSE 7.4 km/h 7.4 km/h 46% 0 mm WeatherDisplay:10.37 W/m2 BKN
14:10 17.7 °C 6.5 °C 1019.5 hPa WSW 7.4 km/h   48% 0 mm WeatherDisplay:10.37 W/m2 BKN
14:16 17.7 °C 6.5 °C 1019.9 hPa West 7.4 km/h 7.4 km/h 48% 0 mm WeatherDisplay:10.37 W/m2 BKN
14:21 17.5 °C 5.4 °C 1019.5 hPa NW 7.4 km/h 7.4 km/h 45% 0 mm WeatherDisplay:10.37 W/m2 BKN
14:26 17.5 °C 4.8 °C 1019.9 hPa NW 7.4 km/h 7.4 km/h 43% 0 mm WeatherDisplay:10.37 W/m2 BKN
14:31 17.4 °C 5.4 °C 1019.5 hPa South 5.6 km/h   45% 0 mm WeatherDisplay:10.37 W/m2 BKN
14:36 17.5 °C 5.1 °C 1019.5 hPa South 5.6 km/h 5.6 km/h 44% 0 mm WeatherDisplay:10.37 W/m2 BKN
14:41 17.4 °C 5.4 °C 1019.5 hPa South 3.7 km/h 3.7 km/h 45% 0 mm WeatherDisplay:10.37 W/m2 BKN
14:46 17.3 °C 5.2 °C 1019.5 hPa ESE 7.4 km/h 7.4 km/h 45% 0 mm WeatherDisplay:10.37 W/m2 BKN
14:51 17.2 °C 5.4 °C 1019.5 hPa South 7.4 km/h   46% 0 mm WeatherDisplay:10.37 W/m2 BKN
14:56 17.2 °C 5.8 °C 1019.5 hPa WSW 7.4 km/h   47% 0 mm WeatherDisplay:10.37 W/m2 BKN
15:01 17.2 °C 5.8 °C 1019.5 hPa West 3.7 km/h 3.7 km/h 47% 0 mm WeatherDisplay:10.37 W/m2 BKN
15:06 17.2 °C 6.1 °C 1019.5 hPa West 5.6 km/h   48% 0 mm WeatherDisplay:10.37 W/m2 BKN
15:11 17.2 °C 6.1 °C 1019.5 hPa West 5.6 km/h   48% 0 mm WeatherDisplay:10.37 W/m2 BKN
15:16 17.2 °C 6.9 °C 1019.5 hPa WSW 3.7 km/h 3.7 km/h 51% 0 mm WeatherDisplay:10.37 W/m2 BKN
15:17 17.2 °C 6.3 °C 1019.5 hPa WSW 3.7 km/h   49% 0 mm WeatherDisplay:10.37 W/m2 BKN
15:23 17.1 °C 5.7 °C 1019.5 hPa West 5.6 km/h 5.6 km/h 47% 0 mm WeatherDisplay:10.37 W/m2 BKN
15:28 17.1 °C 6 °C 1019.5 hPa SW 7.4 km/h 7.4 km/h 48% 0 mm WeatherDisplay:10.37 W/m2 BKN
15:33 17.1 °C 5.7 °C 1019.5 hPa WSW 7.4 km/h 7.4 km/h 47% 0 mm WeatherDisplay:10.37 W/m2 BKN
15:38 17 °C 6.2 °C 1019.5 hPa West 7.4 km/h 7.4 km/h 49% 0 mm WeatherDisplay:10.37 W/m2 BKN
15:43 16.9 °C 6.7 °C 1019.5 hPa West 7.4 km/h 7.4 km/h 51% 0 mm WeatherDisplay:10.37 W/m2 BKN
15:48 16.8 °C 6.1 °C 1019.5 hPa West 7.4 km/h 7.4 km/h 49% 0 mm WeatherDisplay:10.37 W/m2 BKN
15:53 16.8 °C 5.1 °C 1019.5 hPa SSW 7.4 km/h 7.4 km/h 46% 0 mm WeatherDisplay:10.37 W/m2 BKN
15:58 16.9 °C 3.2 °C 1019.5 hPa ESE 7.4 km/h 7.4 km/h 40% 0 mm WeatherDisplay:10.37 W/m2 BKN
16:03 16.8 °C 3.2 °C 1019.5 hPa East 7.4 km/h 7.4 km/h 40% 0 mm WeatherDisplay:10.37 W/m2 SCT
16:08 16.8 °C 3.4 °C 1019.5 hPa SSE 3.7 km/h   41% 0 mm WeatherDisplay:10.37 W/m2 SCT
16:13 16.7 °C 3.3 °C 1019.5 hPa SSE 3.7 km/h 3.7 km/h 41% 0 mm WeatherDisplay:10.37 W/m2 SCT
16:18 16.6 °C 3.9 °C 1019.5 hPa ESE 3.7 km/h   43% 0 mm WeatherDisplay:10.37 W/m2 SCT
16:24 16.3 °C 4 °C 1019.5 hPa ESE 3.7 km/h 3.7 km/h 44% 0 mm WeatherDisplay:10.37 W/m2 SCT
16:25 16.3 °C 4.3 °C 1019.5 hPa ESE 3.7 km/h   45% 0 mm WeatherDisplay:10.37 W/m2 SCT
16:30 16.1 °C 4.4 °C 1019.5 hPa ESE 3.7 km/h 3.7 km/h 46% 0 mm WeatherDisplay:10.37 W/m2 SCT
16:35 16 °C 4.4 °C 1019.5 hPa Calm   4.8 km/h 46% 0 mm WeatherDisplay:10.37 W/m2 SCT
16:40 15.9 °C 4.3 °C 1019.5 hPa Calm   1.6 km/h 46% 0 mm WeatherDisplay:10.37 W/m2 SCT
16:45 15.8 °C 4.2 °C 1019.5 hPa West 1.9 km/h   46% 0 mm WeatherDisplay:10.37 W/m2 SCT
16:50 15.7 °C 3.8 °C 1019.5 hPa WNW 7.4 km/h 7.4 km/h 45% 0 mm WeatherDisplay:10.37 W/m2 SCT
16:55 15.6 °C 4 °C 1019.9 hPa WNW 7.4 km/h 7.4 km/h 46% 0 mm WeatherDisplay:10.37 W/m2 SCT
17:00 15.4 °C 4.2 °C 1019.9 hPa WNW 7.4 km/h   47% 0 mm WeatherDisplay:10.37 W/m2 SCT
17:05 15.3 °C 4.6 °C 1019.9 hPa WNW 1.9 km/h   49% 0 mm WeatherDisplay:10.37 W/m2 SCT
17:10 15.1 °C 4.1 °C 1019.9 hPa West 3.7 km/h   48% 0 mm WeatherDisplay:10.37 W/m2 SCT
17:15 14.9 °C 4.6 °C 1019.9 hPa South 3.7 km/h   50% 0 mm WeatherDisplay:10.37 W/m2 SCT
17:20 14.7 °C 4.9 °C 1019.9 hPa Calm     52% 0 mm WeatherDisplay:10.37 W/m2 SCT
17:26 14.6 °C 5.1 °C 1020.2 hPa SSW 3.7 km/h   53% 0 mm WeatherDisplay:10.37 W/m2 SCT
17:31 14.4 °C 4.9 °C 1020.2 hPa WSW 3.7 km/h 3.7 km/h 53% 0 mm WeatherDisplay:10.37 W/m2 SCT
17:36 14.2 °C 5.1 °C 1020.2 hPa SSE 1.9 km/h   54% 0 mm WeatherDisplay:10.37 W/m2 SCT
17:41 14.1 °C 5.2 °C 1020.2 hPa SSE 1.9 km/h 1.9 km/h 55% 0 mm WeatherDisplay:10.37 W/m2 SCT
17:46 13.9 °C 5.1 °C 1020.2 hPa West 1.9 km/h   55% 0 mm WeatherDisplay:10.37 W/m2 SCT
17:51 13.8 °C 5.2 °C 1020.2 hPa West 1.9 km/h   56% 0 mm WeatherDisplay:10.37 W/m2 SCT
17:56 13.5 °C 4.9 °C 1020.2 hPa Calm     56% 0 mm WeatherDisplay:10.37 W/m2 SCT
18:01 13.3 °C 3.4 °C 1020.2 hPa West 3.7 km/h 3.7 km/h 51% 0 mm WeatherDisplay:10.37 W/m2 BKN
18:06 13.4 °C 3.2 °C 1020.2 hPa WNW 3.7 km/h   50% 0 mm WeatherDisplay:10.37 W/m2 BKN
18:11 13.3 °C 3.3 °C 1020.2 hPa WNW 3.7 km/h   51% 0 mm WeatherDisplay:10.37 W/m2 BKN
18:16 13 °C 3.6 °C 1020.2 hPa WNW 1.9 km/h   53% 0 mm WeatherDisplay:10.37 W/m2 BKN
18:21 12.7 °C 2.8 °C 1020.2 hPa WNW 1.9 km/h   51% 0 mm WeatherDisplay:10.37 W/m2 BKN
18:26 12.6 °C 3.5 °C 1020.2 hPa WNW 1.9 km/h   54% 0 mm WeatherDisplay:10.37 W/m2 BKN
18:32 12.4 °C 3.3 °C 1020.2 hPa Calm     54% 0 mm WeatherDisplay:10.37 W/m2 BKN
18:37 12.2 °C 3.7 °C 1020.2 hPa Calm     56% 0 mm WeatherDisplay:10.37 W/m2 BKN
18:42 12 °C 3.2 °C 1020.5 hPa Calm     55% 0 mm WeatherDisplay:10.37 W/m2 BKN
18:47 11.8 °C 3.6 °C 1020.5 hPa West 1.9 km/h   57% 0 mm WeatherDisplay:10.37 W/m2 BKN
18:52 11.6 °C 3.1 °C 1020.5 hPa West 1.9 km/h   56% 0 mm WeatherDisplay:10.37 W/m2 BKN
18:57 11.4 °C 3.4 °C 1020.5 hPa West 1.9 km/h 1.9 km/h 58% 0 mm WeatherDisplay:10.37 W/m2 BKN
19:02 11.4 °C 2.9 °C 1020.5 hPa SW 1.9 km/h   56% 0 mm WeatherDisplay:10.37 W/m2 SCT
19:07 11.5 °C 3 °C 1020.5 hPa SSW 3.7 km/h   56% 0 mm WeatherDisplay:10.37 W/m2 SCT
19:12 11.4 °C 3.2 °C 1020.5 hPa West 3.7 km/h 3.7 km/h 57% 0 mm WeatherDisplay:10.37 W/m2 SCT
19:17 11.4 °C 2.9 °C 1020.5 hPa WNW 1.9 km/h   56% 0 mm WeatherDisplay:10.37 W/m2 SCT
19:22 11.4 °C 3.2 °C 1020.5 hPa West 1.9 km/h   57% 0 mm WeatherDisplay:10.37 W/m2 SCT
19:27 11.3 °C 2.8 °C 1020.5 hPa Calm     56% 0 mm WeatherDisplay:10.37 W/m2 SCT
19:32 11.2 °C 3.2 °C 1020.5 hPa Calm     58% 0 mm WeatherDisplay:10.37 W/m2 SCT
19:37 11 °C 2.8 °C 1020.5 hPa Calm     57% 0 mm WeatherDisplay:10.37 W/m2 SCT
19:42 10.9 °C 2.9 °C 1020.5 hPa Calm     58% 0 mm WeatherDisplay:10.37 W/m2 SCT
19:48 10.7 °C 3.3 °C 1020.5 hPa Calm     60% 0 mm WeatherDisplay:10.37 W/m2 SCT
19:53 10.6 °C 3.1 °C 1020.5 hPa Calm     60% 0 mm WeatherDisplay:10.37 W/m2 SCT
19:58 10.4 °C 3.2 °C 1020.5 hPa Calm     61% 0 mm WeatherDisplay:10.37 W/m2 SCT
20:08 10.3 °C 3.1 °C 1020.9 hPa WNW 1.9 km/h   61% 0 mm WeatherDisplay:10.37 W/m2 SCT
20:13 10.2 °C 3.2 °C 1020.9 hPa WNW 1.9 km/h   62% 0 mm WeatherDisplay:10.37 W/m2 SCT
20:18 10.1 °C 3.1 °C 1020.9 hPa Calm     62% 0 mm WeatherDisplay:10.37 W/m2 SCT
20:23 9.9 °C 3.2 °C 1020.9 hPa Calm     63% 0 mm WeatherDisplay:10.37 W/m2 SCT
20:28 9.8 °C 3.3 °C 1020.9 hPa Calm     64% 0 mm WeatherDisplay:10.37 W/m2 SCT
20:33 9.7 °C 3.2 °C 1020.9 hPa Calm     64% 0 mm WeatherDisplay:10.37 W/m2 SCT
20:38 9.6 °C 3.1 °C 1020.9 hPa Calm     64% 0 mm WeatherDisplay:10.37 W/m2 SCT
20:43 9.4 °C 3.2 °C 1020.9 hPa Calm     65% 0 mm WeatherDisplay:10.37 W/m2 SCT
20:48 9.3 °C 3.3 °C 1020.9 hPa Calm     66% 0 mm WeatherDisplay:10.37 W/m2 SCT
20:53 9.3 °C 3.3 °C 1020.9 hPa Calm     66% 0 mm WeatherDisplay:10.37 W/m2 SCT
20:58 9.3 °C 3.2 °C 1020.9 hPa Calm     66% 0 mm WeatherDisplay:10.37 W/m2 SCT
21:04 9.2 °C 3.2 °C 1020.9 hPa WNW 1.9 km/h   66% 0 mm WeatherDisplay:10.37 W/m2 FEW
21:09 9.3 °C 3.4 °C 1020.9 hPa WNW 1.9 km/h   67% 0 mm WeatherDisplay:10.37 W/m2 FEW
21:14 9.2 °C 3.2 °C 1020.9 hPa Calm     66% 0 mm WeatherDisplay:10.37 W/m2 FEW
21:19 9.3 °C 3.2 °C 1020.9 hPa Calm     66% 0 mm WeatherDisplay:10.37 W/m2 FEW
21:24 9.3 °C 3.2 °C 1021.2 hPa Calm     66% 0 mm WeatherDisplay:10.37 W/m2 FEW
21:29 9.2 °C 3.2 °C 1021.2 hPa Calm     66% 0 mm WeatherDisplay:10.37 W/m2 FEW
21:34 9.1 °C 3.1 °C 1021.2 hPa Calm     66% 0 mm WeatherDisplay:10.37 W/m2 FEW
21:39 9.1 °C 3.4 °C 1021.2 hPa Calm     68% 0 mm WeatherDisplay:10.37 W/m2 FEW
21:44 9 °C 3.4 °C 1021.2 hPa Calm     68% 0 mm WeatherDisplay:10.37 W/m2 FEW
21:49 8.9 °C 3.3 °C 1021.2 hPa Calm     68% 0 mm WeatherDisplay:10.37 W/m2 FEW
21:54 8.9 °C 3.3 °C 1021.2 hPa Calm     68% 0 mm WeatherDisplay:10.37 W/m2 FEW
21:59 8.9 °C 3.3 °C 1021.2 hPa Calm     68% 0 mm WeatherDisplay:10.37 W/m2 FEW
22:04 8.8 °C 3.2 °C 1021.2 hPa Calm     68% 0 mm WeatherDisplay:10.37 W/m2 FEW
22:10 8.8 °C 3.2 °C 1021.2 hPa Calm     68% 0 mm WeatherDisplay:10.37 W/m2 FEW
22:16 8.7 °C 3.5 °C 1021.2 hPa Calm     70% 0 mm WeatherDisplay:10.37 W/m2 FEW
22:21 8.6 °C 3.4 °C 1021.2 hPa Calm     70% 0 mm WeatherDisplay:10.37 W/m2 FEW
22:23 8.4 °C 3.3 °C 1021.2 hPa Calm     70% 0 mm WeatherDisplay:10.37 W/m2 FEW
22:26 8.4 °C 3.2 °C 1021.2 hPa Calm     70% 0 mm WeatherDisplay:10.37 W/m2 FEW
22:28 8.4 °C 3.2 °C 1021.2 hPa Calm     70% 0 mm WeatherDisplay:10.37 W/m2 FEW
22:31 8.3 °C 3.3 °C 1021.2 hPa Calm     71% 0 mm WeatherDisplay:10.37 W/m2 FEW
22:37 8.2 °C 3.3 °C 1021.2 hPa Calm     71% 0 mm WeatherDisplay:10.37 W/m2 FEW
22:42 8.3 °C 3.3 °C 1021.2 hPa North 1.9 km/h   71% 0 mm WeatherDisplay:10.37 W/m2 FEW
22:43 8.3 °C 3.3 °C 1021.2 hPa North 1.9 km/h   71% 0 mm WeatherDisplay:10.37 W/m2 FEW
22:48 8.3 °C 3.3 °C 1021.2 hPa North 1.9 km/h   71% 0 mm WeatherDisplay:10.37 W/m2 FEW
22:53 8.3 °C 3.3 °C 1021.2 hPa Calm     71% 0 mm WeatherDisplay:10.37 W/m2 FEW
22:58 8.3 °C 3.5 °C 1020.9 hPa Calm     72% 0 mm WeatherDisplay:10.37 W/m2 FEW
23:03 8.2 °C 3.4 °C 1020.9 hPa Calm     72% 0 mm WeatherDisplay:10.37 W/m2 CLR
23:08 8.2 °C 3.4 °C 1020.9 hPa Calm     72% 0 mm WeatherDisplay:10.37 W/m2 CLR
23:14 8.1 °C 3.2 °C 1021.2 hPa Calm     71% 0 mm WeatherDisplay:10.37 W/m2 CLR
23:19 8 °C 3.3 °C 1021.2 hPa Calm     72% 0 mm WeatherDisplay:10.37 W/m2 CLR
23:24 7.9 °C 3.4 °C 1020.9 hPa Calm     73% 0 mm WeatherDisplay:10.37 W/m2 CLR
23:29 8 °C 3.4 °C 1021.2 hPa Calm     73% 0 mm WeatherDisplay:10.37 W/m2 CLR
23:34 7.9 °C 3.4 °C 1020.9 hPa NNE 1.9 km/h   73% 0 mm WeatherDisplay:10.37 W/m2 CLR
23:39 7.8 °C 3.3 °C 1020.9 hPa NNE 1.9 km/h   73% 0 mm WeatherDisplay:10.37 W/m2 CLR
23:40 7.8 °C 3.3 °C 1020.9 hPa Calm     73% 0 mm WeatherDisplay:10.37 W/m2 CLR
23:45 7.7 °C 3.2 °C 1020.9 hPa Calm     73% 0 mm WeatherDisplay:10.37 W/m2 CLR
23:50 7.6 °C 3.3 °C 1020.9 hPa Calm     74% 0 mm WeatherDisplay:10.37 W/m2 CLR
23:55 7.6 °C 3.4 °C 1020.9 hPa NNE 1.9 km/h   75% 0 mm WeatherDisplay:10.37 W/m2 CLR
Piedmont Bend
Compliments of Weather Underground - 4 mb